sat.trackr.live / text

‹ back to catalog

STARLINK-2196

NORAD 47773 · 2021-017BD

PAYLOAD ACTIVE UNKNOWN

§ Identity

Operator
Country
US
Launch date
2021-03-04
Launch site
AFETR
Launch vehicle
Mass (kg)
RCS (m²)

Purposes: comms

External: N2YO · Heavens-Above · Gunter

§ Orbital elements

Epoch: 2026-09-08T22:49:27.446304Z

Period
93.44 min
Inclination
53.1596°
Eccentricity
0.0000420
Mean motion
15.41098577 rev/d
Perigee alt
442.6 km
Apogee alt
443.2 km
Semi-major
6,821.0 km
B*
1.0630e-3
RAAN
82.2228°
Arg perigee
247.4215°
Mean anomaly
112.6747°
Rev number
30,576

§ Raw data

STARLINK-21961 47773U 21017BD  26251.95101211  .00044503  00000+0  10630-2 0  99922 47773  53.1596  82.2228 0000420 247.4215 112.6747 15.41098577305760

JSON: /api/v1/satellites/47773 · /tle

For live sub-satellite position, see the globe view (requires WebGL).

§ Visibility from observer

Set your observer location to see the next 7 days of passes ≥ 10°. The values pass through the URL so the page stays shareable.

No JS? Fill the form by hand. The geolocation button needs JavaScript.